| time (UTC) | temp F | wind direction | speed MPH | gust MPH | rain 1hr in | rain 24hr in | rain mn in | humidity % | barometer mb |
| 20260502151953 | 55 | 73 | 0.0 | 0.0 | 0.00 | 0.00 | 0.00 | 91 | 1036.5 |
| 20260502151449 | 53 | 112 | 1.0 | 1.0 | 0.00 | 0.00 | 0.00 | 93 | 1036.5 |
| 20260502150947 | 51 | 90 | 0.0 | 0.0 | 0.00 | 0.00 | 0.00 | 98 | 1036.5 |
| 20260502150444 | 50 | 90 | 0.0 | 0.0 | 0.00 | 0.00 | 0.00 | 98 | 1036.3 |
| 20260502130329 | 46 | 61 | 0.0 | 0.0 | 0.00 | 0.00 | 0.00 | 99 | 1035.7 |
| 20260502123815 | 46 | 123 | 0.0 | 0.0 | 0.00 | 0.00 | 0.00 | 99 | 1035.4 |
| 20260502123312 | 45 | 105 | 0.0 | 0.0 | 0.00 | 0.00 | 0.00 | 99 | 1035.6 |
| 20260502122809 | 45 | 86 | 0.0 | 0.0 | 0.00 | 0.00 | 0.00 | 99 | 1035.6 |
| 20260502122306 | 45 | 44 | 0.0 | 0.0 | 0.00 | 0.00 | 0.00 | 99 | 1035.4 |
| 20260502121803 | 46 | 30 | 0.0 | 0.0 | 0.00 | 0.00 | 0.00 | 99 | 1035.3 |
| 20260502121300 | 46 | 64 | 0.0 | 0.0 | 0.00 | 0.00 | 0.00 | 99 | 1035.5 |
| 20260502120757 | 46 | 62 | 0.0 | 0.0 | 0.00 | 0.00 | 0.00 | 99 | 1035.2 |
| 20260502120253 | 46 | 58 | 0.0 | 0.0 | 0.00 | 0.00 | 0.00 | 99 | 1035.3 |
| 20260502115751 | 46 | 70 | 0.0 | 0.0 | 0.00 | 0.00 | 0.00 | 99 | 1035.3 |
| 20260502115248 | 46 | 8 | 0.0 | 0.0 | 0.00 | 0.00 | 0.00 | 99 | 1035.1 |
| 20260502114744 | 46 | 4 | 0.0 | 0.0 | 0.00 | 0.00 | 0.00 | 99 | 1035.0 |
| 20260502114241 | 46 | 5 | 0.0 | 0.0 | 0.00 | 0.00 | 0.00 | 99 | 1035.4 |
| 20260502113738 | 47 | 4 | 0.0 | 0.0 | 0.00 | 0.00 | 0.00 | 99 | 1035.3 |
| 20260502113236 | 46 | 5 | 0.0 | 0.0 | 0.00 | 0.00 | 0.00 | 99 | 1035.3 |
| 20260502112734 | 47 | 4 | 0.0 | 0.0 | 0.00 | 0.00 | 0.00 | 99 | 1035.1 |
| 20260502112231 | 47 | 4 | 0.0 | 0.0 | 0.00 | 0.00 | 0.00 | 99 | 1035.2 |
| 20260502111728 | 46 | 4 | 0.0 | 0.0 | 0.00 | 0.00 | 0.00 | 99 | 1035.2 |
| 20260502111226 | 46 | 4 | 0.0 | 0.0 | 0.00 | 0.00 | 0.00 | 99 | 1035.1 |
| 20260502110723 | 47 | 4 | 0.0 | 0.0 | 0.00 | 0.00 | 0.00 | 99 | 1035.1 |
| 20260502110221 | 48 | 4 | 0.0 | 0.0 | 0.00 | 0.00 | 0.00 | 99 | 1035.0 |
| 20260502105719 | 48 | 4 | 0.0 | 0.0 | 0.00 | 0.00 | 0.00 | 98 | 1035.0 |
| 20260502105215 | 48 | 4 | 0.0 | 0.0 | 0.00 | 0.00 | 0.00 | 98 | 1035.1 |
| 20260502104712 | 48 | 4 | 0.0 | 0.0 | 0.00 | 0.00 | 0.00 | 98 | 1035.0 |
| 20260502104210 | 48 | 4 | 0.0 | 0.0 | 0.00 | 0.00 | 0.00 | 98 | 1035.1 |
| 20260502103707 | 48 | 4 | 0.0 | 0.0 | 0.00 | 0.00 | 0.00 | 98 | 1034.9 |
| 20260502103205 | 48 | 4 | 0.0 | 0.0 | 0.00 | 0.00 | 0.00 | 98 | 1035.0 |
| 20260502102701 | 48 | 4 | 0.0 | 0.0 | 0.00 | 0.00 | 0.00 | 98 | 1034.9 |
| 20260502102158 | 49 | 4 | 0.0 | 0.0 | 0.00 | 0.00 | 0.00 | 97 | 1035.1 |
| 20260502101656 | 49 | 4 | 0.0 | 0.0 | 0.00 | 0.00 | 0.00 | 97 | 1034.9 |
| 20260502101154 | 49 | 19 | 0.0 | 0.0 | 0.00 | 0.00 | 0.00 | 97 | 1035.0 |
| 20260502100652 | 50 | 19 | 0.0 | 0.0 | 0.00 | 0.00 | 0.00 | 97 | 1035.0 |
| 20260502100150 | 50 | 19 | 0.0 | 0.0 | 0.00 | 0.00 | 0.00 | 97 | 1035.0 |
| 20260502091124 | 51 | 19 | 0.0 | 0.0 | 0.00 | 0.00 | 0.00 | 95 | 1035.0 |
| 20260502090621 | 51 | 19 | 0.0 | 0.0 | 0.00 | 0.00 | 0.00 | 94 | 1034.8 |
| 20260502090119 | 52 | 19 | 0.0 | 0.0 | 0.00 | 0.00 | 0.00 | 94 | 1035.0 |
| 20260502071516 | 55 | 18 | 0.0 | 0.0 | 0.00 | 0.00 | 0.00 | 87 | 1034.5 |
| 20260502071014 | 55 | 18 | 0.0 | 1.0 | 0.00 | 0.00 | 0.00 | 87 | 1034.3 |
| 20260502070511 | 55 | 18 | 0.0 | 1.0 | 0.00 | 0.00 | 0.00 | 87 | 1034.5 |
| 20260502070010 | 56 | 25 | 1.0 | 2.0 | 0.00 | 0.00 | 0.00 | 86 | 1034.5 |
| 20260502065508 | 56 | 55 | 0.0 | 0.0 | 0.00 | 0.00 | 0.00 | 85 | 1034.4 |
| 20260502065006 | 56 | 56 | 0.0 | 1.0 | 0.00 | 0.00 | 0.00 | 84 | 1034.5 |
| 20260502064504 | 56 | 56 | 0.0 | 0.0 | 0.00 | 0.00 | 0.00 | 84 | 1034.5 |
| 20260502064000 | 56 | 57 | 0.0 | 0.0 | 0.00 | 0.00 | 0.00 | 84 | 1034.4 |
| 20260502063459 | 57 | 56 | 0.0 | 1.0 | 0.00 | 0.00 | 0.00 | 84 | 1034.3 |
| 20260502062955 | 57 | 22 | 0.0 | 1.0 | 0.00 | 0.00 | 0.00 | 83 | 1034.4 |
| 20260502062452 | 57 | 178 | 1.0 | 1.0 | 0.00 | 0.00 | 0.00 | 83 | 1034.2 |
| 20260502061951 | 57 | 177 | 1.0 | 1.0 | 0.00 | 0.00 | 0.00 | 82 | 1034.2 |
| 20260502061449 | 58 | 178 | 0.0 | 0.0 | 0.00 | 0.00 | 0.00 | 81 | 1033.9 |
| 20260502060944 | 59 | 187 | 0.0 | 1.0 | 0.00 | 0.00 | 0.00 | 80 | 1034.1 |
| 20260502060440 | 59 | 192 | 1.0 | 2.0 | 0.00 | 0.00 | 0.00 | 81 | 1034.2 |
| 20260502055937 | 59 | 226 | 1.0 | 2.0 | 0.00 | 0.00 | 0.00 | 79 | 1034.1 |
| 20260502055435 | 60 | 160 | 0.0 | 1.0 | 0.00 | 0.00 | 0.00 | 76 | 1034.0 |
| 20260502054929 | 62 | 175 | 4.0 | 8.0 | 0.00 | 0.00 | 0.00 | 70 | 1034.2 |
| 20260502054426 | 62 | 192 | 0.0 | 2.0 | 0.00 | 0.00 | 0.00 | 70 | 1034.2 |
| 20260502053924 | 62 | 197 | 4.0 | 7.0 | 0.00 | 0.00 | 0.00 | 68 | 1034.1 |
| 20260502053421 | 62 | 167 | 3.0 | 7.0 | 0.00 | 0.00 | 0.00 | 69 | 1034.1 |
| 20260502052918 | 62 | 171 | 4.0 | 8.0 | 0.00 | 0.00 | 0.00 | 69 | 1034.2 |
| 20260502052416 | 60 | 164 | 4.0 | 7.0 | 0.00 | 0.00 | 0.00 | 73 | 1034.2 |
| 20260502051914 | 60 | 185 | 2.0 | 4.0 | 0.00 | 0.00 | 0.00 | 80 | 1034.2 |
| 20260502051412 | 58 | 161 | 2.0 | 6.0 | 0.00 | 0.00 | 0.00 | 82 | 1034.2 |
| 20260502050909 | 57 | 358 | 0.0 | 1.0 | 0.00 | 0.00 | 0.00 | 85 | 1034.2 |
| 20260502050405 | 57 | 358 | 0.0 | 0.0 | 0.00 | 0.00 | 0.00 | 84 | 1034.2 |
| 20260502045903 | 58 | 358 | 0.0 | 0.0 | 0.00 | 0.00 | 0.00 | 83 | 1034.0 |
| 20260502045359 | 58 | 358 | 0.0 | 1.0 | 0.00 | 0.00 | 0.00 | 83 | 1034.0 |
| 20260502044856 | 58 | 358 | 0.0 | 0.0 | 0.00 | 0.00 | 0.00 | 83 | 1033.4 |
| 20260502044351 | 58 | 357 | 0.0 | 0.0 | 0.00 | 0.00 | 0.00 | 83 | 1033.8 |
| 20260502043843 | 58 | 358 | 0.0 | 0.0 | 0.00 | 0.00 | 0.00 | 82 | 1033.5 |
| 20260502043341 | 58 | 358 | 1.0 | 1.0 | 0.00 | 0.00 | 0.00 | 82 | 1033.9 |
| 20260502042840 | 59 | 358 | 0.0 | 0.0 | 0.00 | 0.00 | 0.00 | 81 | 1033.5 |
| 20260502042338 | 59 | 358 | 0.0 | 0.0 | 0.00 | 0.00 | 0.00 | 79 | 1033.5 |
| 20260502041835 | 59 | 357 | 0.0 | 0.0 | 0.00 | 0.00 | 0.00 | 79 | 1033.8 |
| 20260502041332 | 60 | 357 | 0.0 | 0.0 | 0.00 | 0.00 | 0.00 | 78 | 1033.7 |
| 20260502040830 | 60 | 357 | 0.0 | 1.0 | 0.00 | 0.00 | 0.00 | 77 | 1033.3 |
| 20260502040326 | 61 | 357 | 2.0 | 2.0 | 0.00 | 0.00 | 0.00 | 77 | 1033.3 |
| 20260502035822 | 62 | 358 | 0.0 | 0.0 | 0.00 | 0.00 | 0.00 | 74 | 1033.2 |
| 20260502035319 | 62 | 358 | 0.0 | 0.0 | 0.00 | 0.00 | 0.00 | 74 | 1033.3 |
| 20260502034817 | 62 | 358 | 0.0 | 1.0 | 0.00 | 0.00 | 0.00 | 72 | 1033.2 |
| 20260502034315 | 63 | 357 | 1.0 | 2.0 | 0.00 | 0.00 | 0.00 | 71 | 1033.1 |
| 20260502033813 | 63 | 358 | 1.0 | 1.0 | 0.00 | 0.00 | 0.00 | 70 | 1033.1 |
| 20260502033310 | 64 | 358 | 1.0 | 1.0 | 0.00 | 0.00 | 0.00 | 68 | 1033.0 |
| 20260502032807 | 64 | 358 | 1.0 | 1.0 | 0.00 | 0.00 | 0.00 | 68 | 1032.8 |
| 20260502032305 | 65 | 358 | 1.0 | 2.0 | 0.00 | 0.00 | 0.00 | 66 | 1033.0 |
| 20260502031801 | 65 | 340 | 0.0 | 1.0 | 0.00 | 0.00 | 0.00 | 66 | 1032.9 |
| 20260502031259 | 66 | 340 | 0.0 | 1.0 | 0.00 | 0.00 | 0.00 | 64 | 1032.9 |
| 20260502030757 | 67 | 346 | 2.0 | 3.0 | 0.00 | 0.00 | 0.00 | 60 | 1032.9 |
| 20260502030254 | 68 | 352 | 5.0 | 6.0 | 0.00 | 0.00 | 0.00 | 59 | 1033.0 |
| 20260502025752 | 68 | 0 | 3.0 | 7.0 | 0.00 | 0.00 | 0.00 | 59 | 1032.9 |
| 20260502025250 | 68 | 346 | 3.0 | 6.0 | 0.00 | 0.00 | 0.00 | 59 | 1032.8 |
| 20260502024747 | 68 | 29 | 4.0 | 6.0 | 0.00 | 0.00 | 0.00 | 58 | 1032.7 |
| 20260502024245 | 68 | 348 | 2.0 | 3.0 | 0.00 | 0.00 | 0.00 | 59 | 1032.5 |
| 20260502023743 | 69 | 322 | 7.0 | 9.0 | 0.00 | 0.00 | 0.00 | 59 | 1032.7 |
| 20260502023240 | 69 | 356 | 4.0 | 7.0 | 0.00 | 0.00 | 0.00 | 61 | 1032.6 |
| 20260502022738 | 69 | 39 | 2.0 | 6.0 | 0.00 | 0.00 | 0.00 | 61 | 1032.6 |
| 20260502022233 | 69 | 4 | 4.0 | 8.0 | 0.00 | 0.00 | 0.00 | 61 | 1032.7 |
| 20260502021731 | 69 | 18 | 6.0 | 7.0 | 0.00 | 0.00 | 0.00 | 60 | 1032.6 |
| 20260502021228 | 70 | 7 | 4.0 | 10.0 | 0.00 | 0.00 | 0.00 | 60 | 1032.5 |
| 20260502020725 | 70 | 348 | 5.0 | 8.0 | 0.00 | 0.00 | 0.00 | 60 | 1032.6 |
| 20260502020222 | 70 | 351 | 4.0 | 6.0 | 0.00 | 0.00 | 0.00 | 60 | 1032.6 |
| 20260502015720 | 71 | 17 | 4.0 | 6.0 | 0.00 | 0.00 | 0.00 | 59 | 1032.6 |
| 20260502015216 | 71 | 358 | 4.0 | 8.0 | 0.00 | 0.00 | 0.00 | 59 | 1032.6 |
| 20260502014714 | 72 | 353 | 5.0 | 6.0 | 0.00 | 0.00 | 0.00 | 58 | 1032.6 |
| 20260502014211 | 73 | 344 | 5.0 | 8.0 | 0.00 | 0.00 | 0.00 | 56 | 1032.3 |
| 20260502013707 | 73 | 9 | 5.0 | 7.0 | 0.00 | 0.00 | 0.00 | 54 | 1032.4 |
| 20260502013202 | 74 | 336 | 5.0 | 7.0 | 0.00 | 0.00 | 0.00 | 53 | 1032.6 |
| 20260502012700 | 74 | 355 | 4.0 | 7.0 | 0.00 | 0.00 | 0.00 | 50 | 1032.7 |
| 20260502012158 | 75 | 9 | 3.0 | 4.0 | 0.00 | 0.00 | 0.00 | 48 | 1032.6 |
| 20260502011654 | 75 | 4 | 2.0 | 7.0 | 0.00 | 0.00 | 0.00 | 49 | 1032.5 |
| 20260502011150 | 75 | 357 | 0.0 | 4.0 | 0.00 | 0.00 | 0.00 | 46 | 1032.5 |
| 20260502010648 | 75 | 32 | 1.0 | 2.0 | 0.00 | 0.00 | 0.00 | 50 | 1032.6 |
| 20260502010144 | 75 | 259 | 1.0 | 3.0 | 0.00 | 0.00 | 0.00 | 49 | 1032.3 |
| 20260502005641 | 75 | 341 | 4.0 | 7.0 | 0.00 | 0.00 | 0.00 | 46 | 1032.6 |
| 20260502005139 | 75 | 350 | 3.0 | 6.0 | 0.00 | 0.00 | 0.00 | 50 | 1032.6 |
| 20260502004635 | 75 | 6 | 4.0 | 4.0 | 0.00 | 0.00 | 0.00 | 48 | 1032.5 |
| 20260502004132 | 75 | 25 | 4.0 | 6.0 | 0.00 | 0.00 | 0.00 | 48 | 1032.4 |
| 20260502003630 | 76 | 333 | 3.0 | 4.0 | 0.00 | 0.00 | 0.00 | 48 | 1032.6 |
| 20260502003126 | 76 | 37 | 1.0 | 2.0 | 0.00 | 0.00 | 0.00 | 46 | 1032.6 |
| 20260502002622 | 76 | 222 | 4.0 | 6.0 | 0.00 | 0.00 | 0.00 | 47 | 1032.6 |
| 20260502002120 | 77 | 41 | 1.0 | 3.0 | 0.00 | 0.00 | 0.00 | 46 | 1032.7 |
| 20260502001618 | 76 | 90 | 1.0 | 2.0 | 0.00 | 0.00 | 0.00 | 47 | 1032.6 |
| 20260502001115 | 77 | 290 | 2.0 | 3.0 | 0.00 | 0.00 | 0.00 | 44 | 1032.5 |
| 20260502000613 | 78 | 204 | 0.0 | 4.0 | 0.00 | 0.00 | 0.00 | 44 | 1032.7 |
| 20260502000110 | 77 | 6 | 1.0 | 2.0 | 0.00 | 0.00 | 0.00 | 44 | 1032.6 |
| 20260501235606 | 77 | 330 | 2.0 | 7.0 | 0.00 | 0.00 | 0.00 | 46 | 1032.6 |
| 20260501235102 | 78 | 99 | 0.0 | 2.0 | 0.00 | 0.00 | 0.00 | 45 | 1032.7 |
| 20260501234557 | 77 | 41 | 0.0 | 1.0 | 0.00 | 0.00 | 0.00 | 45 | 1032.8 |
| 20260501234055 | 77 | 321 | 2.0 | 3.0 | 0.00 | 0.00 | 0.00 | 43 | 1032.9 |
| 20260501233553 | 77 | 45 | 1.0 | 4.0 | 0.00 | 0.00 | 0.00 | 44 | 1032.8 |
| 20260501233050 | 77 | 358 | 3.0 | 7.0 | 0.00 | 0.00 | 0.00 | 42 | 1032.9 |
| 20260501232546 | 77 | 145 | 0.0 | 2.0 | 0.00 | 0.00 | 0.00 | 44 | 1032.9 |
| 20260501232044 | 77 | 347 | 4.0 | 6.0 | 0.00 | 0.00 | 0.00 | 41 | 1033.0 |
| 20260501231541 | 76 | 20 | 2.0 | 8.0 | 0.00 | 0.00 | 0.00 | 42 | 1033.0 |
| 20260501231039 | 78 | 13 | 3.0 | 4.0 | 0.00 | 0.00 | 0.00 | 40 | 1032.9 |
| 20260501230538 | 77 | 116 | 1.0 | 2.0 | 0.00 | 0.00 | 0.00 | 42 | 1033.1 |
| 20260501230035 | 78 | 334 | 3.0 | 6.0 | 0.00 | 0.00 | 0.00 | 43 | 1033.0 |
| 20260501225533 | 77 | 24 | 4.0 | 7.0 | 0.00 | 0.00 | 0.00 | 41 | 1033.1 |
| 20260501225029 | 77 | 351 | 2.0 | 4.0 | 0.00 | 0.00 | 0.00 | 42 | 1033.3 |
| 20260501224526 | 77 | 351 | 1.0 | 3.0 | 0.00 | 0.00 | 0.00 | 40 | 1033.1 |
| 20260501224023 | 76 | 291 | 2.0 | 4.0 | 0.00 | 0.00 | 0.00 | 41 | 1033.3 |
| 20260501223520 | 78 | 11 | 7.0 | 8.0 | 0.00 | 0.00 | 0.00 | 40 | 1033.4 |
| 20260501223016 | 76 | 263 | 1.0 | 7.0 | 0.00 | 0.00 | 0.00 | 42 | 1033.7 |
| 20260501222512 | 76 | 11 | 2.0 | 7.0 | 0.00 | 0.00 | 0.00 | 43 | 1033.8 |
| 20260501222009 | 77 | 338 | 3.0 | 6.0 | 0.00 | 0.00 | 0.00 | 40 | 1033.8 |
| 20260501221505 | 77 | 1 | 3.0 | 8.0 | 0.00 | 0.00 | 0.00 | 41 | 1033.7 |
| 20260501221004 | 75 | 339 | 3.0 | 7.0 | 0.00 | 0.00 | 0.00 | 42 | 1033.7 |
| 20260501220501 | 76 | 5 | 4.0 | 8.0 | 0.00 | 0.00 | 0.00 | 42 | 1033.8 |
| 20260501215957 | 75 | 22 | 2.0 | 6.0 | 0.00 | 0.00 | 0.00 | 43 | 1033.8 |
| 20260501215454 | 76 | 328 | 1.0 | 4.0 | 0.00 | 0.00 | 0.00 | 43 | 1034.0 |
| 20260501214949 | 74 | 27 | 2.0 | 6.0 | 0.00 | 0.00 | 0.00 | 44 | 1034.0 |
| 20260501214445 | 75 | 8 | 2.0 | 8.0 | 0.00 | 0.00 | 0.00 | 43 | 1034.1 |
| 20260501213940 | 74 | 16 | 1.0 | 8.0 | 0.00 | 0.00 | 0.00 | 45 | 1034.1 |
| 20260501213438 | 75 | 28 | 3.0 | 6.0 | 0.00 | 0.00 | 0.00 | 45 | 1034.0 |
| 20260501212933 | 75 | 331 | 2.0 | 6.0 | 0.00 | 0.00 | 0.00 | 45 | 1034.2 |
| 20260501212430 | 75 | 43 | 1.0 | 8.0 | 0.00 | 0.00 | 0.00 | 49 | 1034.0 |
| 20260501211927 | 76 | 301 | 2.0 | 6.0 | 0.00 | 0.00 | 0.00 | 45 | 1034.1 |
| 20260501211424 | 74 | 56 | 1.0 | 3.0 | 0.00 | 0.00 | 0.00 | 44 | 1033.9 |
| 20260501210922 | 75 | 3 | 7.0 | 8.0 | 0.00 | 0.00 | 0.00 | 43 | 1034.0 |
| 20260501210418 | 74 | 23 | 4.0 | 7.0 | 0.00 | 0.00 | 0.00 | 45 | 1034.2 |
| 20260501205915 | 75 | 282 | 0.0 | 4.0 | 0.00 | 0.00 | 0.00 | 43 | 1034.3 |
| 20260501205412 | 75 | 332 | 1.0 | 3.0 | 0.00 | 0.00 | 0.00 | 44 | 1034.0 |
| 20260501204909 | 75 | 163 | 2.0 | 4.0 | 0.00 | 0.00 | 0.00 | 45 | 1034.0 |
| 20260501204405 | 76 | 32 | 3.0 | 6.0 | 0.00 | 0.00 | 0.00 | 42 | 1034.2 |
| 20260501203901 | 76 | 250 | 2.0 | 4.0 | 0.00 | 0.00 | 0.00 | 43 | 1034.3 |
| 20260501203358 | 75 | 71 | 1.0 | 6.0 | 0.00 | 0.00 | 0.00 | 44 | 1034.4 |
| 20260501202856 | 74 | 38 | 2.0 | 9.0 | 0.00 | 0.00 | 0.00 | 44 | 1034.3 |
| 20260501202352 | 74 | 57 | 0.0 | 2.0 | 0.00 | 0.00 | 0.00 | 47 | 1034.4 |
| 20260501201849 | 73 | 2 | 3.0 | 9.0 | 0.00 | 0.00 | 0.00 | 44 | 1034.3 |
| 20260501201346 | 73 | 32 | 4.0 | 7.0 | 0.00 | 0.00 | 0.00 | 43 | 1034.4 |
| 20260501200842 | 73 | 4 | 4.0 | 6.0 | 0.00 | 0.00 | 0.00 | 45 | 1034.5 |
| 20260501200340 | 73 | 330 | 3.0 | 6.0 | 0.00 | 0.00 | 0.00 | 46 | 1034.5 |
| 20260501195838 | 74 | 23 | 0.0 | 6.0 | 0.00 | 0.00 | 0.00 | 46 | 1034.3 |
| 20260501195333 | 73 | 89 | 0.0 | 3.0 | 0.00 | 0.00 | 0.00 | 50 | 1034.3 |
| 20260501194829 | 73 | 22 | 3.0 | 6.0 | 0.00 | 0.00 | 0.00 | 47 | 1034.7 |
| 20260501194325 | 73 | 291 | 2.0 | 7.0 | 0.00 | 0.00 | 0.00 | 47 | 1034.5 |
| 20260501193822 | 72 | 37 | 4.0 | 9.0 | 0.00 | 0.00 | 0.00 | 48 | 1034.6 |
| 20260501193321 | 72 | 10 | 4.0 | 8.0 | 0.00 | 0.00 | 0.00 | 49 | 1034.6 |
| 20260501192818 | 73 | 31 | 4.0 | 10.0 | 0.00 | 0.00 | 0.00 | 48 | 1034.4 |
| 20260501192315 | 72 | 49 | 4.0 | 11.0 | 0.00 | 0.00 | 0.00 | 49 | 1034.7 |
| 20260501191811 | 72 | 23 | 6.0 | 8.0 | 0.00 | 0.00 | 0.00 | 47 | 1034.5 |
| 20260501191309 | 72 | 24 | 2.0 | 6.0 | 0.00 | 0.00 | 0.00 | 47 | 1034.7 |
| 20260501190805 | 71 | 19 | 5.0 | 7.0 | 0.00 | 0.00 | 0.00 | 48 | 1034.8 |
| 20260501190301 | 71 | 330 | 3.0 | 4.0 | 0.00 | 0.00 | 0.00 | 49 | 1034.8 |
| 20260501185757 | 71 | 353 | 6.0 | 7.0 | 0.00 | 0.00 | 0.00 | 50 | 1034.8 |
| 20260501185253 | 71 | 300 | 4.0 | 4.0 | 0.00 | 0.00 | 0.00 | 50 | 1034.8 |
| 20260501184749 | 70 | 344 | 2.0 | 6.0 | 0.00 | 0.00 | 0.00 | 51 | 1034.8 |
| 20260501184244 | 70 | 345 | 5.0 | 7.0 | 0.00 | 0.00 | 0.00 | 51 | 1035.0 |
| 20260501183740 | 71 | 58 | 2.0 | 4.0 | 0.00 | 0.00 | 0.00 | 50 | 1034.9 |
| 20260501183238 | 70 | 337 | 6.0 | 7.0 | 0.00 | 0.00 | 0.00 | 50 | 1035.0 |
| 20260501182734 | 71 | 7 | 3.0 | 4.0 | 0.00 | 0.00 | 0.00 | 51 | 1035.0 |
| 20260501182231 | 70 | 46 | 0.0 | 2.0 | 0.00 | 0.00 | 0.00 | 51 | 1035.0 |
| 20260501181728 | 70 | 353 | 3.0 | 6.0 | 0.00 | 0.00 | 0.00 | 51 | 1035.1 |
| 20260501181226 | 70 | 318 | 2.0 | 4.0 | 0.00 | 0.00 | 0.00 | 52 | 1035.2 |
| 20260501180723 | 69 | 9 | 2.0 | 7.0 | 0.00 | 0.00 | 0.00 | 51 | 1035.1 |
| 20260501180219 | 69 | 348 | 4.0 | 7.0 | 0.00 | 0.00 | 0.00 | 52 | 1035.1 |
| 20260501175716 | 70 | 23 | 2.0 | 6.0 | 0.00 | 0.00 | 0.00 | 51 | 1034.9 |
| 20260501175213 | 71 | 89 | 3.0 | 4.0 | 0.00 | 0.00 | 0.00 | 49 | 1035.0 |
| 20260501174709 | 71 | 31 | 1.0 | 3.0 | 0.00 | 0.00 | 0.00 | 49 | 1035.1 |
| 20260501174207 | 70 | 89 | 0.0 | 2.0 | 0.00 | 0.00 | 0.00 | 52 | 1035.0 |
| 20260501173704 | 69 | 86 | 2.0 | 4.0 | 0.00 | 0.00 | 0.00 | 53 | 1035.2 |
| 20260501173201 | 69 | 32 | 1.0 | 3.0 | 0.00 | 0.00 | 0.00 | 52 | 1035.3 |
| 20260501172657 | 68 | 86 | 1.0 | 4.0 | 0.00 | 0.00 | 0.00 | 53 | 1035.3 |
| 20260501172152 | 67 | 44 | 0.0 | 1.0 | 0.00 | 0.00 | 0.00 | 57 | 1035.2 |
| 20260501171648 | 66 | 57 | 0.0 | 2.0 | 0.00 | 0.00 | 0.00 | 55 | 1035.4 |
| 20260501171145 | 65 | 354 | 4.0 | 4.0 | 0.00 | 0.00 | 0.00 | 57 | 1035.4 |
| 20260501170642 | 66 | 34 | 2.0 | 2.0 | 0.00 | 0.00 | 0.00 | 54 | 1035.3 |
| 20260501170139 | 65 | 3 | 2.0 | 2.0 | 0.00 | 0.00 | 0.00 | 54 | 1035.4 |
| 20260501165637 | 64 | 4 | 1.0 | 2.0 | 0.00 | 0.00 | 0.00 | 55 | 1035.3 |
| 20260501165133 | 64 | 27 | 1.0 | 3.0 | 0.00 | 0.00 | 0.00 | 58 | 1035.6 |
| 20260501164632 | 65 | 2 | 1.0 | 3.0 | 0.00 | 0.00 | 0.00 | 57 | 1035.5 |
| 20260501164128 | 64 | 46 | 0.0 | 0.0 | 0.00 | 0.00 | 0.00 | 63 | 1035.4 |
| 20260501163625 | 63 | 46 | 0.0 | 0.0 | 0.00 | 0.00 | 0.00 | 66 | 1035.5 |
| 20260501163122 | 62 | 46 | 0.0 | 1.0 | 0.00 | 0.00 | 0.00 | 67 | 1035.5 |
| 20260501162618 | 61 | 46 | 0.0 | 1.0 | 0.00 | 0.00 | 0.00 | 70 | 1035.7 |
| 20260501162115 | 61 | 46 | 0.0 | 1.0 | 0.00 | 0.00 | 0.00 | 67 | 1035.6 |
| 20260501161613 | 61 | 46 | 0.0 | 0.0 | 0.00 | 0.00 | 0.00 | 73 | 1035.6 |
| 20260501161109 | 60 | 46 | 0.0 | 0.0 | 0.00 | 0.00 | 0.00 | 74 | 1035.5 |
| 20260501160606 | 59 | 46 | 0.0 | 0.0 | 0.00 | 0.00 | 0.00 | 76 | 1035.7 |
| 20260501155559 | 56 | 45 | 0.0 | 0.0 | 0.00 | 0.00 | 0.00 | 83 | 1035.9 |
| 20260501155056 | 56 | 45 | 0.0 | 0.0 | 0.00 | 0.00 | 0.00 | 85 | 1035.8 |